Satellite-Ground Cal/Val Site Overpasses Predictions

Prediction of Satellite NPP Overpassing Cal/Val Site: Antarctic Dome C

Ground Cal/Val Site Location: Latitude: -75.10, Longitude: 123.35; Satellite-Ground Site NADIR distance within 100 km.

Table of predicted overpasses for the next 14.0 days since TLE Epoch: 5/22/2020
Interval Starting Time Ending Time Minimum Distance Time Minimum Distance (km)
1 05/23/2020 15:07:17 05/23/2020 15:07:24 05/23/2020 15:07:20 96.12
2 05/24/2020 14:48:16 05/24/2020 14:48:45 05/24/2020 14:48:31 15.20
3 05/26/2020 07:31:05 05/26/2020 07:31:35 05/26/2020 07:31:20 1.87
4 05/29/2020 14:54:32 05/29/2020 14:55:01 05/29/2020 14:54:47 21.24
5 05/30/2020 14:35:49 05/30/2020 14:36:04 05/30/2020 14:35:57 85.86
6 05/31/2020 07:37:22 05/31/2020 07:37:49 05/31/2020 07:37:36 34.21
7 06/01/2020 07:18:36 06/01/2020 07:18:54 06/01/2020 07:18:45 75.99
8 06/03/2020 15:00:50 06/03/2020 15:01:13 06/03/2020 15:01:01 58.03
9 06/04/2020 14:42:00 06/04/2020 14:42:25 06/04/2020 14:42:12 51.15


NCC Satellite Cal/Val Overpasses Prediction Service
